Weather History for KBCB - February, 2013

Change the Weather History Date:

Friday, February 1, 2013

  Actual Average Record
Temperature  
Mean Temperature 23 °F 32 °F  
Max Temperature 33 °F 43 °F 73 °F (2002)
Min Temperature 12 °F 22 °F -2 °F (1971)
Degree Days  
Heating Degree Days 42 33  
Month to date heating degree days 42 33  
Since 1 July heating degree days 3023 3220  
Cooling Degree Days 0 0  
Month to date cooling degree days 0 0  
Year to date cooling degree days 0 0  
Moisture  
Dew Point 13 °F    
Average Humidity 76    
Maximum Humidity 100    
Minimum Humidity 52    
Precipitation  
Precipitation 0.05 in 0.10 in 0.78 in (1985)
Month to date precipitation 0.05 0.10  
Year to date precipitation 7.79 3.18  
Snow  
Snow 0.90 in - - ()
Month to date snowfall 0.9  
Since 1 July snowfall 12.6  
Snow Depth 0.00 in    
Sea Level Pressure  
Sea Level Pressure 30.11 in    
Wind  
Wind Speed 13 mph (WNW)    
Max Wind Speed 27 mph    
Max Gust Speed 35 mph    
Visibility 9 miles    
Events Snow    
T = Trace of Precipitation, MM = Missing Value Source: NWS Daily Summary

Daily Weather History Graph

Daily Weather History Graph

Search for Another Location

Airport or City:

Trip Planner

Search our weather history database for the weather conditions in past years. The results will help you decide how hot, cold, wet, or windy it might be!

Date:

Astronomy

Feb. 01, 2013 Rise Set
Actual Time 7:24 AM EST 5:46 PM EST
Civil Twilight 6:56 AM EST 6:14 PM EST
Nautical Twilight 6:25 AM EST 6:45 PM EST
Astronomical Twilight 5:55 AM EST 7:15 PM EST
Moon 11:42 PM EST (2/1) 10:05 AM EST (2/1)
Length of Visible Light 11h 17m
Length of Day
10h 22m
Waning Gibbous, 70% of the Moon is Illuminated
Feb 1
Waning Gibbous
Feb 3
Last Quarter
Feb 10
New
Feb 17
First Quarter
Feb 25
Full

Hourly Weather History & Observations

Time (EST) Temp. Windchill Dew Point Humidity Pressure Visibility Wind Dir Wind Speed Gust Speed Precip Events Conditions
12:15 AM 33.8 °F 25.8 °F 24.8 °F 70% 29.85 in 10.0 mi WSW 10.4 mph 19.6 mph N/A   Mostly Cloudy
12:57 AM 35.6 °F 28.0 °F 26.6 °F 70% 29.82 in 10.0 mi WSW 10.4 mph 18.4 mph N/A   Overcast
1:18 AM 35.6 °F 28.0 °F 26.6 °F 70% 29.82 in 10.0 mi WSW 10.4 mph 21.9 mph N/A   Overcast
1:35 AM 35.6 °F 27.5 °F 26.6 °F 70% 29.81 in 10.0 mi WSW 11.5 mph 20.7 mph N/A   Overcast
2:18 AM 35.6 °F 27.5 °F 26.6 °F 70% 29.78 in 10.0 mi WSW 11.5 mph 23.0 mph N/A   Overcast
2:38 AM 35.6 °F 26.6 °F 28.4 °F 75% 29.78 in 10.0 mi WSW 13.8 mph 32.2 mph N/A   Mostly Cloudy
2:55 AM 35.6 °F 24.8 °F 28.4 °F 75% 29.77 in 10.0 mi WSW 19.6 mph 29.9 mph N/A   Mostly Cloudy
3:19 AM 35.6 °F 26.6 °F 30.2 °F 81% 29.77 in 10.0 mi WSW 13.8 mph 35.7 mph N/A   Overcast
3:38 AM 35.6 °F 27.1 °F 30.2 °F 81% 29.79 in 4.0 mi WNW 12.7 mph 25.3 mph N/A Snow Light Snow
3:55 AM 33.8 °F 26.4 °F 33.8 °F 100% 29.80 in 0.5 mi West 9.2 mph 18.4 mph N/A Snow Light Snow
4:15 AM 30.2 °F 17.4 °F 30.2 °F 100% 29.83 in 1.5 mi WNW 20.7 mph 27.6 mph N/A Snow Light Snow
4:35 AM 28.4 °F 17.5 °F 28.4 °F 100% 29.87 in 0.5 mi WNW 13.8 mph 31.1 mph N/A Snow Snow
5:35 AM 23.0 °F 8.0 °F 15.8 °F 74% 29.94 in 10.0 mi WNW 20.7 mph 33.4 mph N/A   Mostly Cloudy
5:58 AM 21.2 °F 3.9 °F 15.8 °F 80% 29.97 in 5.0 mi WNW 26.5 mph 33.4 mph N/A Snow Light Snow
6:18 AM 19.4 °F 4.1 °F 10.4 °F 68% 29.97 in 10.0 mi WNW 18.4 mph 35.7 mph N/A   Mostly Cloudy
6:38 AM 19.4 °F 5.0 °F 8.6 °F 63% 29.98 in 10.0 mi West 16.1 mph 31.1 mph N/A   Scattered Clouds
6:55 AM 19.4 °F 4.1 °F 6.8 °F 58% 30.00 in 10.0 mi WNW 18.4 mph 31.1 mph N/A   Clear
7:18 AM 19.4 °F 4.5 °F 5.0 °F 54% 30.01 in 10.0 mi West 17.3 mph 28.8 mph N/A   Clear
8:20 AM 17.6 °F 2.2 °F 8.6 °F 68% 30.06 in 10.0 mi WNW 17.3 mph 25.3 mph N/A   Mostly Cloudy
8:35 AM 17.6 °F 2.7 °F 8.6 °F 68% 30.08 in 10.0 mi WNW 16.1 mph 31.1 mph N/A   Scattered Clouds
8:58 AM 17.6 °F 2.7 °F 10.4 °F 73% 30.10 in 5.0 mi WNW 16.1 mph 28.8 mph N/A   Haze
9:19 AM 19.4 °F 3.6 °F 8.6 °F 63% 30.13 in 10.0 mi WNW 19.6 mph 31.1 mph N/A Snow Light Snow
9:35 AM 17.6 °F 0.1 °F 6.8 °F 63% 30.13 in 10.0 mi NW 23.0 mph 32.2 mph N/A   Mostly Cloudy
10:15 AM 19.4 °F 6.0 °F 10.4 °F 68% 30.15 in 10.0 mi WNW 13.8 mph 19.6 mph N/A   Overcast
10:35 AM 19.4 °F 7.9 °F 10.4 °F 68% 30.16 in 10.0 mi WNW 10.4 mph 19.6 mph N/A   Overcast
11:15 AM 21.2 °F 9.5 °F 10.4 °F 63% 30.18 in 10.0 mi West 11.5 mph 19.6 mph N/A   Mostly Cloudy
11:35 AM 19.4 °F 6.6 °F 10.4 °F 68% 30.19 in 10.0 mi WNW 12.7 mph 19.6 mph N/A   Overcast
11:55 AM 21.2 °F 8.3 °F 10.4 °F 63% 30.20 in 10.0 mi WNW 13.8 mph 20.7 mph N/A   Mostly Cloudy
12:15 PM 19.4 °F 4.5 °F 8.6 °F 63% 30.20 in 10.0 mi WNW 17.3 mph 23.0 mph N/A   Scattered Clouds
12:38 PM 19.4 °F 4.5 °F 8.6 °F 63% 30.19 in 10.0 mi WNW 17.3 mph 25.3 mph N/A   Clear
12:56 PM 21.2 °F 8.9 °F 8.6 °F 58% 30.19 in 10.0 mi West 12.7 mph 19.6 mph N/A   Clear
1:16 PM 21.2 °F 7.8 °F 8.6 °F 58% 30.19 in 10.0 mi WNW 15.0 mph 21.9 mph N/A   Clear
1:37 PM 21.2 °F 7.3 °F 8.6 °F 58% 30.19 in 10.0 mi WNW 16.1 mph 23.0 mph N/A   Clear
2:15 PM 21.2 °F 7.3 °F 8.6 °F 58% 30.19 in 10.0 mi WNW 16.1 mph 23.0 mph N/A   Clear
2:35 PM 21.2 °F 7.8 °F 8.6 °F 58% 30.20 in 10.0 mi WNW 15.0 mph 25.3 mph N/A   Clear
3:15 PM 23.0 °F 9.2 °F 8.6 °F 54% 30.20 in 10.0 mi WNW 17.3 mph 21.9 mph N/A   Clear
3:35 PM 23.0 °F 11.7 °F 8.6 °F 54% 30.20 in 10.0 mi WNW 11.5 mph 21.9 mph N/A   Clear
3:58 PM 23.0 °F 13.1 °F 8.6 °F 54% 30.21 in 10.0 mi WNW 9.2 mph 17.3 mph N/A   Clear
4:15 PM 23.0 °F 11.1 °F 8.6 °F 54% 30.21 in 10.0 mi WNW 12.7 mph 18.4 mph N/A   Clear
4:38 PM 21.2 °F 9.5 °F 6.8 °F 54% 30.21 in 10.0 mi WNW 11.5 mph 24.2 mph N/A   Clear
4:55 PM 21.2 °F 7.8 °F 6.8 °F 54% 30.21 in 10.0 mi WNW 15.0 mph 20.7 mph N/A   Clear
5:15 PM 21.2 °F 7.3 °F 6.8 °F 54% 30.22 in 10.0 mi WNW 16.1 mph 21.9 mph N/A   Clear
5:35 PM 19.4 °F 5.0 °F 8.6 °F 63% 30.22 in 10.0 mi WNW 16.1 mph 21.9 mph N/A   Clear
5:57 PM 19.4 °F 6.6 °F 6.8 °F 58% 30.22 in 10.0 mi WNW 12.7 mph 21.9 mph N/A   Clear
6:15 PM 19.4 °F 7.2 °F 6.8 °F 58% 30.22 in 10.0 mi WNW 11.5 mph 17.3 mph N/A   Clear
6:35 PM 19.4 °F 8.6 °F 6.8 °F 58% 30.24 in 10.0 mi WNW 9.2 mph - N/A   Clear
6:58 PM 19.4 °F 8.6 °F 8.6 °F 63% 30.24 in 10.0 mi West 9.2 mph - N/A   Clear
7:17 PM 19.4 °F 8.6 °F 8.6 °F 63% 30.24 in 10.0 mi WNW 9.2 mph 16.1 mph N/A   Clear
7:37 PM 19.4 °F 8.6 °F 6.8 °F 58% 30.25 in 10.0 mi WNW 9.2 mph 17.3 mph N/A   Clear
7:55 PM 19.4 °F 7.9 °F 8.6 °F 63% 30.26 in 10.0 mi WNW 10.4 mph 16.1 mph N/A   Clear
8:15 PM 17.6 °F 9.3 °F 8.6 °F 68% 30.26 in 10.0 mi West 5.8 mph - N/A   Clear
8:37 PM 17.6 °F 12.3 °F 8.6 °F 68% 30.28 in 10.0 mi West 3.5 mph - N/A   Clear
8:57 PM 17.6 °F 9.3 °F 8.6 °F 68% 30.28 in 10.0 mi WNW 5.8 mph - N/A   Clear
9:35 PM 17.6 °F 8.2 °F 8.6 °F 68% 30.28 in 10.0 mi WNW 6.9 mph - N/A   Clear
9:55 PM 17.6 °F 10.7 °F 8.6 °F 68% 30.28 in 10.0 mi WNW 4.6 mph - N/A   Clear
10:15 PM 15.8 °F - 8.6 °F 73% 30.29 in 10.0 mi Calm Calm - N/A   Clear
10:37 PM 15.8 °F 10.2 °F 8.6 °F 73% 30.29 in 10.0 mi West 3.5 mph - N/A   Clear
10:58 PM 15.8 °F 8.6 °F 8.6 °F 73% 30.28 in 10.0 mi WNW 4.6 mph - N/A   Clear
11:17 PM 15.8 °F 7.2 °F 8.6 °F 73% 30.27 in 10.0 mi WNW 5.8 mph - N/A   Clear
11:38 PM 17.6 °F 9.3 °F 8.6 °F 68% 30.27 in 10.0 mi WNW 5.8 mph - N/A   Clear
11:58 PM 15.8 °F - 8.6 °F 73% 30.28 in 10.0 mi Calm Calm - N/A   Clear